Home   Weather   Herzogenrath   Past weeks

Flag for Germany Past Weather in Herzogenrath, North Rhine-Westphalia, Germany — Yesterday and Last 2 Weeks

Now
56 °F

Overcast.


Feels Like: 55 °F
Forecast: 45 / 54 °F
Wind: 6 mph from Southeast

Location: Maastricht Airport Zuid Limburg

Current Time: May 1, 2017 at 2:40:10 am

Latest Report: May 1, 2017 at 1:00 am


Visibility: 28 mi

Pressure: 29.64 "Hg

Humidity: 45%

Dew Point: 35 °F

Location of HerzogenrathLocation

Past Weather in Herzogenrath — Graph

°F

Herzogenrath Temperature Yesterday

Maximum temperature yesterday: 67 °F (at 3:00 pm)
Minimum temperature yesterday: 42 °F (at 6:00 am)
Average temperature yesterday: 55 °F

High & Low Weather Summary for the Past Weeks

 TemperatureHumidityPressure
High67 °F (Apr 30, 3:00 pm)98% (Apr 17, 8:00 am)30.66 "Hg (Apr 17, 8:00 am)
Low28 °F (Apr 20, 7:00 am)26% (Apr 30, 7:00 pm)29.64 "Hg (May 1, 12:00 am)
Average45 °F68%30.15 "Hg
* Reported Apr 16 1:00 am — May 1 1:00 am, Herzogenrath, Weather by CustomWeather, © 2017

Note: Actual official high and low records may vary slightly from our data, if they occured in-between our weather recording intervals... More about our weather records

Advertising

Herzogenrath Weather History for the Previous 24 Hours

Scroll right to see more
 ConditionsComfort  
Time TempWeatherWind HumidityBarometerVisibility
1:00 am
Mon, May 1
56 °FOvercast.6 mph45%29.64 "Hg28 mi
12:00 am58 °FOvercast.6 mph40%29.64 "Hg28 mi
11:00 pm
Sun, Apr 30
58 °FPassing clouds.7 mph37%29.64 "Hg28 mi
10:00 pm59 °FPassing clouds.6 mph36%29.65 "Hg28 mi
9:00 pm61 °FOvercast.6 mph32%29.66 "Hg28 mi
8:00 pm64 °FPassing clouds.7 mph28%29.65 "Hg25 mi
7:00 pm65 °FPassing clouds.7 mph26%29.66 "Hg22 mi
6:00 pm65 °FSunny.7 mph28%29.67 "Hg19 mi
5:00 pm66 °FPassing clouds.8 mph29%29.69 "Hg22 mi
4:00 pm66 °FPassing clouds.9 mph28%29.71 "Hg18 mi
3:00 pm67 °FSunny.9 mph30%29.73 "Hg19 mi
2:00 pm66 °FPartly sunny.8 mph31%29.75 "Hg19 mi
1:00 pm65 °FPassing clouds.7 mph32%29.78 "Hg16 mi
12:00 pm63 °FPassing clouds.7 mph33%29.80 "Hg19 mi
11:00 am60 °FOvercast.6 mph38%29.83 "Hg19 mi
10:00 am56 °FOvercast.6 mph50%29.86 "Hg17 mi
9:00 am50 °FSunny.5 mph57%29.88 "Hg19 mi
8:00 am46 °FPassing clouds.6 mph61%29.90 "Hg19 mi
7:00 am42 °FPartly sunny.6 mph65%29.91 "Hg22 mi
6:00 am42 °FPassing clouds.7 mph65%29.91 "Hg25 mi
5:00 am42 °FClear.6 mph64%29.93 "Hg19 mi
4:00 am43 °FClear.6 mph63%29.94 "Hg22 mi
3:00 am43 °FClear.6 mph65%29.96 "Hg19 mi
2:00 am44 °FPassing clouds.6 mph62%29.97 "Hg19 mi
Weather by CustomWeather, © 2017

See weather overviewHow to use our weather pages